Vorticity
5 6 6 6 6 7 10 18 23 19 13 19 20 18 19 8 21 -1 8 15 4 11 24 25 -5 11 12 11 9 6 23 21 6 16 4 8 11 2 13 0 -6 4 14 10 20 6 20 5 7 10 11 30 7 7
5 6 6 6 6 7 10 13 22 20 12 25 14 21 17 16 12 23 -7 9 -16 -13 5 4 8 0 6 12 -7 15 -3 3 6 5 9 17 5 7 11 6 19 14 -1 -1 5 -10 7 4 5 9 8 33 20 6
5 6 6 5 6 7 10 11 19 18 19 9 21 14 22 17 8 22 6 -4 2 11 12 4 4 9 9 3 15 6 4 14 4 4 12 22 -1 13 0 12 13 21 18 3 16 -4 18 6 9 10 9 27 25 5
5 6 6 5 7 8 10 12 16 16 20 21 17 19 23 19 9 20 -1 14 7 20 0 24 16 14 11 15 14 15 14 -1 6 6 30 -7 11 11 7 -0 -1 -5 -4 -1 16 -6 29 19 10 9 6 10 19 14
6 5 6 6 7 7 9 12 18 17 15 19 22 25 21 23 14 33 16 7 23 -13 17 13 0 7 18 6 17 17 9 13 7 15 23 9 27 -1 14 8 14 9 9 13 6 -1 12 22 10 12 9 8 6 11
6 5 6 6 7 8 9 13 22 18 14 10 16 24 29 25 18 32 5 -7 7 -12 -4 11 26 15 8 7 17 20 18 1 24 14 14 8 -6 3 3 15 -1 17 33 1 0 10 7 17 18 8 8 9 9 13
6 5 5 7 8 8 8 13 24 19 11 14 17 24 34 27 29 -2 28 24 -9 16 -1 5 16 15 16 1 19 16 6 14 21 17 12 23 7 22 6 9 9 -15 -7 11 20 10 9 13 9 11 3 6 5 10
6 5 5 6 8 8 8 12 27 21 5 20 26 32 32 26 28 -25 9 16 3 18 -2 1 6 15 13 20 16 9 14 9 15 17 9 6 7 6 14 37 57 17 23 12 9 4 7 13 8 24 10 5 10 9
6 5 5 6 7 8 8 10 30 18 4 27 30 32 32 24 30 5 9 6 6 -5 8 3 3 4 18 15 7 13 7 16 14 10 16 9 9 -1 21 16 23 11 17 36 6 26 11 14 15 1 6 15 -2 40
6 5 5 6 7 7 8 7 30 16 15 32 26 27 21 22 12 4 6 16 21 -0 -13 -2 16 -1 3 19 6 10 10 8 12 12 21 25 11 25 -2 -9 -1 12 26 35 27 -36 -4 -9 13 14 17 12 8 15
6 5 5 5 7 7 8 6 23 17 22 35 24 -2 38 22 -9 -2 16 2 9 17 23 23 -1 4 1 10 14 8 7 12 12 15 10 12 -2 -5 42 24 12 9 14 27 15 12 17 28 -12 25 15 15 11 9
6 6 5 5 6 7 7 9 14 24 26 30 18 25 23 14 -10 12 10 16 15 6 3 24 30 21 -3 5 4 12 15 13 11 10 13 12 -3 25 25 19 9 12 11 4 15 9 18 5 10 20 16 13 11 7
6 6 6 5 6 7 7 7 11 30 22 13 13 20 2 8 17 15 18 20 10 15 29 15 8 29 17 11 8 9 12 10 12 14 11 3 17 24 18 26 18 5 9 15 12 9 15 15 9 10 14 11 8 9
7 5 6 6 6 6 8 7 10 34 23 22 3 21 -5 12 12 19 12 15 8 2 -5 22 13 6 17 8 11 8 11 11 11 10 6 16 21 21 16 14 16 12 8 -0 3 12 11 15 10 10 9 9 10 11
7 6 6 6 6 6 8 8 7 25 29 16 -1 14 13 -3 7 10 17 12 8 10 -2 18 9 -2 22 -2 15 7 13 15 10 11 11 9 5 8 19 25 15 15 27 18 10 9 12 13 13 13 10 6 11 4
7 6 6 7 6 6 8 11 8 27 25 14 4 5 7 13 12 14 9 7 9 19 -0 22 0 15 7 6 14 4 9 8 10 19 1 8 9 9 11 9 19 20 19 19 18 14 12 13 14 11 12 8 8 4
8 6 7 7 7 6 6 11 14 27 8 17 11 16 10 -3 -2 8 17 16 18 13 14 -6 20 2 12 13 8 6 -5 -8 -12 11 -6 7 5 2 4 10 17 17 19 20 19 16 13 14 13 11 9 11 6 9
7 6 7 8 7 7 5 10 30 18 -12 19 24 20 13 13 13 4 -8 -6 11 20 24 -14 2 10 -22 2 -4 1 26 26 26 22 10 -3 -11 4 12 11 10 21 22 20 19 16 16 14 11 10 8 13 9 16
6 7 7 9 7 8 8 25 8 12 4 4 4 14 23 19 12 8 18 17 4 -2 18 16 6 19 13 -13 -9 -2 8 13 7 16 33 29 20 13 1 6 11 18 24 20 18 14 15 11 9 15 12 9 18 14
6 7 8 9 8 7 22 5 14 27 -3 5 4 14 8 10 20 24 10 12 16 17 16 -0 13 -3 8 37 27 19 -13 -28 16 13 4 11 9 6 7 7 14 18 29 25 18 12 9 9 19 9 10 12 10 7
7 7 9 9 8 8 10 14 -1 7 -4 25 -1 5 11 9 14 18 24 23 10 10 21 7 6 1 19 -1 21 18 18 27 11 -6 -19 14 16 15 9 6 20 24 23 21 16 11 15 6 15 9 10 9 5 7
8 7 9 8 7 9 11 10 16 13 17 4 8 4 10 15 15 19 20 21 23 16 14 22 18 14 9 13 3 5 -4 31 40 35 32 23 18 11 11 11 22 29 22 11 15 12 9 18 9 9 10 7 8 10
9 9 9 9 19 21 1 30 22 14 7 -6 6 9 13 7 15 17 21 13 16 20 14 16 21 19 22 14 2 23 14 -10 3 23 15 10 2 5 7 14 25 25 19 17 8 8 15 7 14 11 9 8 9 10
8 9 14 26 20 6 18 5 2 7 2 6 7 7 15 14 12 14 9 17 20 16 17 19 13 6 14 35 14 21 6 27 11 -31 -15 -1 9 5 6 10 18 24 17 13 6 10 10 17 10 6 8 12 9 7
8 14 12 20 9 22 16 12 9 9 6 9 10 17 10 12 2 4 39 35 17 13 24 22 20 23 17 27 30 6 20 3 40 21 11 6 -11 -10 0 9 18 20 16 16 4 6 13 19 6 8 9 10 11 4
13 26 0 9 10 17 5 8 8 12 12 9 16 10 6 13 32 11 3 17 0 -3 9 20 16 6 25 30 30 21 19 14 10 13 32 37 29 8 3 5 10 20 23 16 11 10 13 10 6 9 10 10 -0 -5
14 -6 9 9 -1 -2 8 1 4 12 7 14 10 18 29 15 15 5 -19 0 20 19 13 13 14 13 13 24 32 26 16 19 17 19 3 -16 2 10 9 6 12 23 28 26 11 9 14 10 7 9 8 0 2 1
11 -2 11 15 17 20 12 4 6 20 37 27 19 3 8 -17 -33 7 8 16 17 12 6 18 22 11 9 16 24 40 18 18 19 18 9 11 16 13 5 3 14 15 26 35 11 15 13 11 12 1 5 11 7 13
6 21 21 8 20 13 4 5 17 16 13 15 12 9 4 7 6 5 10 13 7 7 18 25 30 17 10 18 16 32 33 14 20 17 23 14 12 11 8 9 11 19 19 33 12 14 19 10 7 9 6 7 13 9
19 20 4 8 20 6 2 10 15 12 12 9 7 6 5 10 11 10 14 9 4 13 21 24 28 21 17 19 19 29 31 21 18 19 19 15 18 19 22 21 23 28 32 19 7 6 0 5 6 3 10 11 8 7
13 14 17 17 15 7 5 13 14 12 11 13 9 6 8 9 12 12 17 9 7 19 23 28 21 18 22 23 22 28 29 24 19 18 19 23 16 16 22 32 33 29 18 10 8 14 21 10 0 14 11 7 8 7
22 16 15 17 17 8 8 8 9 11 12 13 10 11 10 9 10 11 18 6 13 24 26 19 18 21 24 26 26 28 28 26 22 19 19 22 22 23 36 27 13 10 10 16 28 11 6 11 21 15 9 7 7 8
15 17 19 15 8 4 7 17 13 7 11 15 15 11 10 14 21 26 11 7 20 23 21 19 22 24 25 27 26 28 27 31 32 26 32 36 28 22 16 11 9 15 21 0 5 3 6 20 15 11 7 7 8 8
Height
3010 3003 2997 2990 2984 2977 2969 2960 2953 2947 2944 2941 2938 2938 2937 2938 2939 2941 2945 2948 2951 2952 2953 2955 2959 2962 2965 2967 2968 2970 2971 2971 2973 2973 2973 2973 2971 2971 2970 2969 2969 2969 2968 2967 2968 2968 2963 2958 2956 2956 2956 2953 2953 2954
3006 3000 2993 2987 2981 2975 2967 2958 2951 2945 2941 2939 2936 2935 2936 2937 2938 2939 2944 2947 2949 2953 2955 2956 2959 2961 2962 2964 2965 2966 2969 2969 2970 2970 2970 2969 2968 2967 2967 2966 2965 2966 2966 2966 2966 2963 2960 2959 2957 2956 2955 2954 2954 2955
3002 2997 2989 2983 2978 2973 2965 2956 2949 2943 2938 2935 2933 2931 2932 2933 2935 2938 2942 2944 2949 2952 2954 2955 2957 2959 2960 2961 2963 2965 2965 2967 2967 2968 2967 2966 2965 2964 2964 2963 2963 2963 2963 2963 2963 2962 2960 2959 2958 2958 2957 2955 2956 2957
2998 2993 2986 2980 2975 2969 2961 2953 2945 2939 2935 2930 2928 2928 2928 2930 2932 2935 2939 2943 2948 2950 2951 2954 2954 2955 2956 2958 2959 2961 2962 2962 2963 2963 2963 2962 2962 2962 2961 2962 2962 2963 2963 2962 2961 2960 2958 2958 2958 2959 2960 2959 2959 2960
2994 2988 2982 2977 2972 2965 2957 2950 2942 2936 2931 2927 2923 2923 2923 2926 2930 2934 2938 2942 2946 2950 2950 2951 2952 2953 2954 2955 2956 2957 2958 2958 2958 2958 2958 2959 2958 2960 2959 2958 2956 2959 2960 2961 2960 2960 2959 2959 2959 2959 2961 2961 2961 2962
2989 2984 2978 2975 2970 2961 2954 2946 2938 2932 2927 2923 2919 2917 2918 2921 2927 2932 2935 2940 2943 2946 2949 2950 2951 2952 2952 2953 2953 2953 2953 2954 2953 2953 2954 2955 2956 2959 2956 2952 2953 2955 2957 2958 2958 2959 2959 2958 2959 2959 2961 2961 2962 2962
2983 2980 2975 2972 2967 2959 2951 2943 2935 2928 2923 2919 2915 2912 2913 2918 2924 2929 2934 2937 2940 2943 2947 2949 2949 2949 2949 2950 2950 2950 2951 2950 2949 2949 2949 2950 2952 2952 2950 2945 2950 2952 2953 2955 2955 2956 2957 2957 2958 2959 2960 2961 2962 2963
2978 2974 2971 2968 2963 2956 2948 2940 2931 2925 2920 2914 2910 2908 2909 2915 2922 2929 2932 2936 2941 2944 2947 2949 2948 2948 2948 2948 2948 2948 2948 2946 2945 2946 2947 2947 2947 2946 2943 2942 2943 2946 2947 2949 2951 2953 2955 2956 2956 2957 2959 2961 2962 2963
2973 2969 2967 2964 2960 2954 2945 2937 2929 2922 2917 2911 2906 2905 2908 2915 2921 2928 2933 2937 2940 2945 2945 2946 2947 2947 2947 2947 2947 2947 2946 2944 2944 2943 2944 2945 2942 2939 2939 2939 2939 2941 2942 2943 2947 2950 2952 2954 2956 2958 2959 2961 2963 2962
2969 2965 2962 2960 2956 2950 2943 2936 2927 2920 2915 2909 2907 2906 2909 2915 2923 2929 2935 2938 2940 2942 2942 2943 2945 2947 2948 2947 2947 2946 2944 2944 2942 2942 2940 2937 2931 2933 2935 2936 2937 2937 2937 2937 2942 2946 2949 2951 2953 2956 2958 2960 2962 2963
2963 2962 2959 2957 2953 2948 2941 2934 2926 2920 2915 2910 2908 2909 2911 2918 2924 2929 2933 2935 2938 2939 2939 2940 2943 2944 2946 2947 2946 2946 2944 2942 2940 2940 2938 2933 2928 2927 2927 2929 2933 2936 2936 2937 2940 2943 2946 2947 2952 2954 2956 2958 2961 2963
2959 2957 2955 2953 2950 2946 2940 2934 2927 2920 2915 2913 2911 2912 2916 2923 2926 2928 2930 2934 2934 2936 2936 2937 2939 2941 2943 2945 2946 2945 2943 2941 2938 2937 2935 2930 2928 2926 2925 2928 2931 2933 2936 2937 2939 2941 2944 2946 2950 2952 2955 2957 2960 2962
2954 2952 2951 2949 2947 2944 2939 2934 2927 2922 2919 2917 2916 2917 2921 2925 2926 2927 2928 2930 2932 2933 2934 2936 2937 2939 2941 2944 2945 2944 2941 2939 2937 2934 2931 2928 2927 2926 2926 2928 2931 2933 2934 2936 2939 2942 2943 2946 2948 2951 2954 2956 2959 2962
2948 2948 2946 2945 2944 2941 2938 2934 2928 2923 2921 2920 2920 2922 2923 2925 2927 2926 2927 2929 2932 2933 2934 2935 2936 2938 2939 2942 2942 2941 2939 2937 2934 2931 2928 2928 2926 2926 2927 2928 2930 2931 2933 2935 2937 2939 2942 2945 2947 2950 2953 2956 2959 2961
2943 2943 2941 2940 2940 2937 2935 2932 2928 2924 2922 2922 2923 2922 2923 2924 2925 2926 2928 2929 2931 2932 2933 2934 2935 2937 2938 2940 2939 2938 2936 2932 2930 2928 2928 2928 2928 2927 2926 2926 2927 2929 2930 2933 2935 2938 2940 2943 2945 2948 2950 2954 2957 2959
2939 2937 2937 2936 2935 2933 2932 2930 2927 2924 2921 2921 2921 2921 2921 2923 2924 2924 2924 2926 2927 2928 2930 2933 2934 2934 2934 2935 2933 2932 2933 2930 2929 2928 2928 2928 2928 2927 2926 2926 2925 2926 2927 2929 2932 2935 2938 2941 2944 2947 2949 2952 2955 2958
2933 2932 2933 2932 2931 2928 2928 2927 2925 2922 2920 2921 2919 2919 2919 2920 2921 2922 2923 2923 2923 2925 2927 2929 2927 2928 2928 2927 2926 2925 2924 2928 2927 2928 2927 2928 2927 2927 2926 2925 2924 2924 2925 2926 2929 2932 2935 2938 2941 2944 2948 2950 2953 2955
2928 2928 2928 2928 2926 2924 2924 2923 2921 2920 2918 2917 2916 2916 2915 2915 2916 2917 2919 2920 2921 2920 2921 2922 2921 2919 2919 2918 2918 2920 2922 2923 2923 2923 2924 2925 2925 2925 2924 2923 2923 2922 2922 2924 2926 2929 2932 2935 2939 2942 2945 2948 2951 2954
2923 2923 2922 2923 2922 2920 2919 2918 2918 2916 2915 2913 2913 2912 2911 2911 2911 2911 2912 2912 2914 2916 2916 2915 2915 2911 2912 2912 2915 2916 2917 2918 2919 2918 2917 2918 2919 2920 2921 2920 2920 2920 2920 2921 2923 2927 2930 2934 2938 2940 2943 2947 2950 2953
2917 2918 2918 2918 2917 2916 2914 2914 2913 2911 2910 2910 2908 2907 2907 2906 2905 2905 2904 2904 2905 2905 2906 2905 2903 2904 2906 2907 2907 2910 2912 2913 2914 2914 2914 2915 2916 2916 2917 2916 2917 2916 2916 2918 2921 2925 2928 2931 2935 2938 2942 2945 2949 2952
2911 2912 2912 2912 2911 2911 2910 2908 2907 2905 2904 2904 2903 2902 2901 2900 2898 2897 2896 2895 2895 2894 2894 2894 2897 2898 2898 2900 2900 2901 2902 2903 2906 2907 2908 2910 2910 2911 2911 2911 2912 2912 2913 2916 2919 2922 2925 2930 2933 2936 2940 2943 2946 2949
2904 2905 2906 2905 2905 2904 2903 2901 2901 2899 2899 2899 2898 2897 2894 2893 2891 2889 2887 2887 2884 2885 2886 2886 2886 2887 2889 2891 2891 2891 2894 2895 2897 2899 2901 2903 2905 2905 2906 2907 2907 2908 2911 2913 2917 2921 2925 2928 2931 2933 2937 2941 2945 2947
2897 2899 2899 2899 2899 2896 2896 2894 2894 2894 2894 2892 2892 2891 2889 2886 2884 2882 2880 2878 2877 2877 2877 2876 2876 2875 2876 2879 2881 2883 2883 2886 2889 2892 2894 2896 2898 2900 2901 2902 2903 2904 2908 2911 2915 2918 2921 2924 2927 2931 2936 2939 2942 2945
2891 2892 2892 2892 2890 2889 2889 2889 2889 2889 2889 2888 2886 2885 2883 2880 2878 2875 2871 2871 2870 2869 2868 2866 2865 2865 2865 2865 2868 2872 2873 2874 2878 2882 2885 2888 2892 2895 2896 2897 2899 2901 2904 2908 2911 2914 2917 2920 2923 2928 2933 2937 2939 2942
2888 2888 2886 2884 2884 2884 2884 2884 2884 2884 2883 2882 2881 2880 2877 2875 2872 2869 2865 2864 2863 2862 2860 2859 2857 2855 2855 2855 2856 2859 2861 2864 2866 2869 2873 2879 2883 2887 2890 2892 2894 2896 2898 2901 2905 2909 2912 2915 2919 2926 2930 2934 2937 2940
2880 2878 2879 2876 2877 2879 2879 2879 2879 2879 2878 2877 2876 2874 2872 2870 2867 2863 2861 2861 2859 2858 2855 2852 2849 2848 2847 2845 2845 2847 2850 2852 2857 2859 2862 2866 2871 2877 2881 2884 2887 2889 2891 2894 2898 2903 2906 2910 2916 2921 2926 2929 2932 2936
2871 2870 2870 2872 2873 2874 2874 2874 2874 2874 2873 2872 2870 2869 2868 2865 2861 2860 2858 2856 2853 2850 2847 2844 2841 2839 2838 2837 2836 2836 2838 2841 2845 2849 2852 2857 2861 2866 2871 2876 2879 2882 2884 2887 2891 2896 2900 2905 2910 2916 2920 2924 2929 2933
2862 2862 2865 2867 2866 2867 2868 2869 2868 2868 2866 2865 2865 2864 2862 2860 2858 2855 2851 2848 2845 2842 2838 2834 2831 2829 2828 2827 2827 2826 2828 2831 2834 2837 2841 2846 2851 2856 2861 2866 2870 2873 2877 2882 2885 2890 2895 2901 2907 2911 2917 2922 2926 2928
2854 2857 2860 2860 2861 2861 2862 2863 2862 2861 2861 2860 2859 2857 2855 2853 2852 2848 2845 2841 2837 2833 2828 2825 2821 2819 2818 2817 2817 2817 2818 2820 2824 2827 2832 2836 2841 2847 2851 2855 2859 2864 2868 2874 2880 2886 2892 2897 2903 2909 2915 2919 2922 2924
2849 2851 2852 2853 2854 2855 2857 2857 2856 2856 2855 2854 2853 2851 2849 2847 2846 2843 2839 2835 2830 2825 2820 2815 2812 2810 2808 2808 2807 2807 2809 2811 2815 2819 2822 2828 2833 2837 2842 2847 2851 2856 2862 2868 2873 2878 2884 2892 2899 2905 2911 2915 2918 2921
2842 2844 2845 2846 2847 2850 2851 2851 2851 2850 2849 2848 2847 2845 2843 2840 2839 2837 2833 2829 2824 2819 2813 2809 2806 2803 2801 2799 2799 2799 2801 2803 2806 2811 2815 2820 2824 2829 2835 2840 2846 2852 2858 2865 2873 2880 2885 2892 2898 2903 2907 2911 2915 2917
2836 2837 2839 2840 2843 2845 2846 2846 2845 2844 2843 2842 2841 2840 2838 2836 2833 2831 2829 2824 2819 2813 2809 2805 2801 2797 2794 2793 2793 2793 2795 2798 2801 2804 2809 2814 2818 2824 2831 2837 2845 2852 2860 2866 2873 2879 2885 2890 2895 2899 2904 2908 2911 2914
2831 2832 2834 2836 2838 2839 2841 2841 2840 2839 2837 2836 2835 2835 2833 2831 2828 2827 2824 2821 2816 2812 2807 2803 2799 2795 2792 2790 2790 2790 2791 2794 2797 2800 2805 2811 2816 2825 2833 2840 2848 2855 2861 2867 2872 2878 2882 2888 2893 2897 2901 2905 2908 2911